Flag for Italy Weather past 2 weeks in Venice, Italy

Now
54 °F

Partly sunny.


Feels Like: 49 °F
Forecast: 52 / 64 °F
Wind: 16 mph from North

Location: Venice / Tessera


UV Index: 3 (Moderate)

Visibility: N/A


Pressure: 29.68 "Hg

Humidity: 72%

Dew point: 45 °F

Location of VeniceLocation

Historic Weather in Venice

°F

Venice temperature yesterday

Maximum temperature yesterday: 64 °F (at 2:50 PM)
Minimum temperature yesterday: 46 °F (at 6:50 AM)
Average temperature yesterday: 57 °F

Past Weeks' High & Low Weather Summary

 TemperatureHumidityPressure
High72 °F (Apr 7, 1:50 PM)100% (Apr 14, 8:50 AM)30.15 "Hg (Apr 14, 8:50 AM)
Low43 °F (Apr 17, 4:50 AM)20% (Apr 16, 12:50 PM)29.65 "Hg (Apr 5, 3:20 AM)
Average59 °F65%29.97 "Hg
* Reported Apr 4 6:20 AM — Apr 19 6:50 AM, Venice, Weather by CustomWeather, © 2014

Note: Actual official high and low records may vary slightly from our data, if they occured in-between our weather recording intervals... More about our weather records

Advertising

Historic Weather Conditions — Data for Previous 24 hours

 ConditionsComfort  
Time TempWeatherWind HumidityBarometerVisibility
6:50 AM
Apr 19
54 °FPassing clouds.16 mph77%29.68 "HgN/A
5:20 AM54 °FPartly cloudy.18 mph77%29.68 "HgN/A
4:50 AM54 °FLight rain. Partly cloudy.14 mph77%29.68 "HgN/A
4:20 AM54 °FPassing clouds.12 mph67%29.68 "HgN/A
3:50 AM55 °FPassing clouds.12 mph63%29.68 "HgN/A
3:20 AM55 °FPassing clouds.9 mph63%29.68 "HgN/A
2:50 AM55 °FPassing clouds.12 mph63%29.68 "HgN/A
2:20 AM55 °FPassing clouds.10 mph59%29.68 "HgN/A
1:50 AM57 °FLight rain. Partly cloudy.14 mph55%29.68 "HgN/A
1:20 AM57 °FPassing clouds.12 mph55%29.68 "HgN/A
12:50 AM59 °FPassing clouds.No wind55%29.68 "HgN/A
12:20 AM57 °FPassing clouds.3 mph67%29.68 "HgN/A
11:50 PM
Apr 18
57 °FPassing clouds.2 mph63%29.65 "HgN/A
10:50 PM59 °FPartly cloudy.5 mph59%29.68 "HgN/A
10:20 PM59 °FPartly cloudy.5 mph59%29.68 "HgN/A
9:50 PM59 °FPartly cloudy.3 mph63%29.68 "HgN/A
9:20 PM59 °FPartly cloudy.3 mph59%29.65 "HgN/A
8:50 PM59 °FBroken clouds.5 mph63%29.65 "HgN/A
8:20 PM59 °FBroken clouds.2 mph59%29.65 "HgN/A
7:50 PM59 °FBroken clouds.6 mph63%29.65 "HgN/A
7:20 PM61 °FScattered clouds.3 mph55%29.65 "HgN/A
6:50 PM61 °FScattered clouds.5 mph55%29.65 "HgN/A
6:20 PM63 °FScattered clouds.3 mph45%29.68 "HgN/A
5:50 PM63 °FScattered clouds.3 mph42%29.68 "HgN/A
5:20 PM63 °FScattered clouds.6 mph42%29.68 "HgN/A
4:50 PM64 °FScattered clouds.7 mph40%29.68 "HgN/A
4:20 PM64 °FSunny.6 mph40%29.68 "Hg10 mi
3:50 PM64 °FSunny.6 mph34%29.71 "Hg10 mi
3:20 PM64 °FSunny.6 mph37%29.71 "Hg10 mi
2:50 PM64 °FSunny.6 mph34%29.71 "Hg10 mi
2:20 PM63 °FSunny.6 mph37%29.74 "Hg10 mi
1:50 PM63 °FSunny.7 mph37%29.74 "Hg10 mi
1:20 PM63 °FSunny.7 mph37%29.77 "Hg10 mi
12:50 PM63 °FSunny.8 mph37%29.77 "Hg10 mi
12:20 PM61 °FSunny.7 mph34%29.80 "Hg10 mi
11:50 AM61 °FSunny.6 mph36%29.80 "Hg10 mi
11:20 AM59 °FSunny.3 mph39%29.80 "Hg10 mi
10:50 AM61 °FSunny.3 mph36%29.83 "Hg10 mi
10:20 AM59 °FSunny.2 mph39%29.83 "Hg10 mi
9:50 AM59 °FSunny.2 mph48%29.83 "Hg10 mi
9:20 AM54 °FSunny.5 mph54%29.83 "Hg10 mi
8:50 AM52 °FSunny.3 mph62%29.83 "Hg10 mi
8:20 AM50 °FSunny.2 mph67%29.86 "Hg10 mi
Weather by CustomWeather, © 2014

See weather overview